Notices

What's New in latest Release from April 7th, 2021:

- Updated Glossary, including Speed of Maximum Gust, and Total Hourly Precipitation

- Updated national and regional climate services offices contacts and prices information

- Addition of station inventory lists for 1981-2010, 1971-2000, and 1961-1990 Normals.

If you haven't already, please take our survey and provide feedback about our website: https://eccc.sondage-survey.ca/f/LanguageSelection.aspx?s=442ca660-fcf1-47c0-95a9-59707d6fd709

Hourly Data Report for August 13, 2020

TORONTO CITY
ONTARIO
Current Station Operator: ECCC - MSC

43°40'00.000" N
79°24'00.000" W
112.50 m
6158355
71508
XTO

Download Data

Hourly Data (August 2020)
Hourly Data Report for August 13, 2020
TIME
LST
Temp Definition
°C
Dew Point Definition
°C
Rel Hum Definition
%
Precip. Amount Definition
mm

Wind Dir Definition
10's deg

Wind Spd Definition
km/h
Visibility Definition
km
Stn Press Definition
kPa
Hmdx Definition


Wind Chill Definition


Weather Definition


00:00 21.1 13.0 60 0.0       100.63     LegendNANA
01:00 21.4 11.4 53 0.0       100.63     LegendNANA
02:00 21.8 10.0 47 0.0       100.62     LegendNANA
03:00 21.6 12.3 55 0.0       100.64     LegendNANA
04:00 21.3 13.9 63 0.0       100.66 25   LegendNANA
05:00 21.0 15.5 71 0.0       100.68 25   LegendNANA
06:00 21.5 15.8 70 0.0       100.73 26   LegendNANA
07:00 21.9 15.5 67 0.0       100.77 26   LegendNANA
08:00 23.8 14.9 57 0.0       100.80 28   LegendNANA
09:00 25.4 13.9 49 0.0       100.80 29   LegendNANA
10:00 27.1 12.9 42 0.0       100.79 30   LegendNANA
11:00 27.0 12.1 40 0.0       100.76 29   LegendNANA
12:00 28.2 11.2 35 0.0       100.73 30   LegendNANA
13:00 28.8 10.2 31 0.0       100.70 30   LegendNANA
14:00 28.9 11.5 34 0.0       100.67 31   LegendNANA
15:00 29.1 11.7 34 0.0       100.62 31   LegendNANA
16:00 28.0 12.1 37 0.0       100.56 30   LegendNANA
17:00 27.2 11.9 39 0.0       100.56 29   LegendNANA
18:00 27.3 10.9 36 0.0       100.52 29   LegendNANA
19:00 27.4 9.7 33 0.0       100.55 29   LegendNANA
20:00 26.0 9.8 36 0.0       100.60 27   LegendNANA
21:00 24.3 10.7 42 0.0       100.62 26   LegendNANA
22:00 23.7 11.5 46 0.0       100.61 26   LegendNANA
23:00 24.3 11.0 43 0.0       100.61 26   LegendNANA

Notes on Data Quality.

Legend

  • E = Estimated
  • M = Missing
  • NA = Not Available*
  • [empty] = Indicates an unobserved value
Date modified: